Location: Huberhof
(49.2050°N, 7.4980°E)
Time: 05:31:05
(UTC+00:00)

Cosmos 1745 Rocket - Pass Details

Date: 29 October 2020
Orbit: 953 x 997 km, 83.0° (Epoch: 25 November)

Event Time Altitude Azimuth Distance (km) Brightness Sun altitude
Rises 18:06:24 0° 349° (N) 3,694 7.2 -19.0°
Reaches altitude 10° 18:08:54 10° 348° (NNW) 2,748 6.5 -19.4°
Maximum altitude 18:15:12 76° 264° (W) 1,024 4.2 -20.4°
Drops below altitude 10° 18:21:31 10° 180° (S) 2,753 6.3 -21.4°
Sets 18:24:02 0° 179° (S) 3,701 7.0 -21.8°
